Overview Statistics Trail Chart Weather Telemetry Raw packets
 

This is the latest recevied weather packets stored in our database for station/object N4BBA. If no packets are shown the sender has not sent any weather packets the latest 10 day(s).

<< 34 35 36 37 38 39 40 >>
Time Temp. Humidity Pressure Rain* Wind** Luminosity Snow
1777468113 17.22° C 92% 1014.3 hPa 0 mm - 87 W/m² -
1777467809 17.22° C 93% 1014.2 hPa 0 mm - 95 W/m² -
1777467505 17.22° C 93% 1014.2 hPa 0 mm - 89 W/m² -
1777467200 17.22° C 94% 1014.2 hPa 0 mm - 107 W/m² -
1777466898 16.67° C 94% 1014.3 hPa 0 mm - 125 W/m² -
1777466595 16.67° C 95% 1014.2 hPa 0 mm - 151 W/m² -
1777466292 16.67° C 95% 1014.5 hPa 0 mm - 130 W/m² -
1777465988 16.11° C 95% 1014.4 hPa 0 mm - 128 W/m² -
1777465684 16.11° C 96% 1014.5 hPa 0 mm - 118 W/m² -
1777465379 16.11° C 96% 1014.5 hPa 0 mm - 130 W/m² -
1777465078 16.67° C 96% 1014.6 hPa 0 mm - 107 W/m² -
1777464774 16.11° C 97% 1014.5 hPa 0 mm - 107 W/m² -
1777464470 16.11° C 97% 1014.5 hPa 0 mm - 95 W/m² -
1777464166 15.56° C 97% 1014.6 hPa 0 mm - 83 W/m² -
1777463866 15° C 97% 1014.6 hPa 0 mm - 112 W/m² -
1777463562 15° C 97% 1014.4 hPa 0 mm - 108 W/m² -
1777463257 15° C 97% 1014.8 hPa 0 mm - 93 W/m² -
1777462954 14.44° C 97% 1014.7 hPa 0 mm - 78 W/m² -
1777462649 14.44° C 97% 1014.7 hPa 0 mm - 63 W/m² -
1777462344 14.44° C 97% 1014.7 hPa 0 mm - 56 W/m² -
1777462041 13.89° C 97% 1014.5 hPa 0 mm - 52 W/m² -
1777461738 13.89° C 97% 1014.5 hPa 0 mm - 51 W/m² -
1777461433 13.89° C 97% 1014.4 hPa 0 mm - 47 W/m² -
1777461130 13.89° C 97% 1014.1 hPa 0 mm - 45 W/m² -
1777460825 13.89° C 97% 1014.1 hPa 0 mm - 34 W/m² -

* Rain latest hour (hover to see other rain measurements)
** Current wind speed in m/s (hover to see current wind gust speed)